EZY552 EGKK-LFPG

Flight info

Callsign EZY552
Flight time N/A
Altitude 23000
Route BOGNA BENBO M605 HARDY UM605 BIBAX
Aircraft A20N/M-SDE2E3FGHIRWXY/LB1

Departure

Time N/A
Airport London Gatwick Airport (EGKK)

Arrival

Time 2026-05-03 20:19
Airport Charles de Gaulle International Airport (LFPG)
Time Latitude Longitude Altitude Speed Heading
2026-05-03 20:15 49.03890 2.79020 3360 ft 181 kts 263°
2026-05-03 20:15 49.03788 2.77123 3138 ft 179 kts 263°
2026-05-03 20:15 49.03687 2.75234 2878 ft 179 kts 263°
2026-05-03 20:15 49.03586 2.73346 2649 ft 178 kts 263°
2026-05-03 20:16 49.03487 2.71483 2415 ft 176 kts 263°
2026-05-03 20:16 49.03387 2.69622 2177 ft 176 kts 263°
2026-05-03 20:16 49.03292 2.67822 1970 ft 162 kts 263°
2026-05-03 20:16 49.03205 2.66199 1742 ft 147 kts 262°
2026-05-03 20:17 49.03124 2.64694 1557 ft 141 kts 263°
2026-05-03 20:17 49.03044 2.63213 1346 ft 140 kts 262°
2026-05-03 20:17 49.02957 2.61742 1169 ft 140 kts 264°
2026-05-03 20:17 49.02877 2.60262 957 ft 140 kts 264°
2026-05-03 20:18 49.02811 2.58787 740 ft 139 kts 264°
2026-05-03 20:18 49.02736 2.57329 573 ft 138 kts 263°
2026-05-03 20:18 49.02655 2.55878 392 ft 136 kts 264°
2026-05-03 20:18 49.02584 2.54532 357 ft 109 kts 265°
2026-05-03 20:19 49.02530 2.53597 361 ft 71 kts 259°
2026-05-03 20:19 49.02418 2.53269 360 ft 11 kts 233°
2026-05-03 20:19 49.02373 2.53175 362 ft 11 kts 233°
2026-05-03 20:19 49.02327 2.53081 362 ft 11 kts 233°
2026-05-03 20:20 49.02254 2.53009 364 ft 19 kts 192°
2026-05-03 20:20 49.02068 2.53016 360 ft 32 kts 175°
2026-05-03 20:20 49.01894 2.53035 358 ft 23 kts 187°
2026-05-03 20:20 49.01771 2.52941 363 ft 3 kts 210°
2026-05-03 20:21 49.01751 2.52945 363 ft 7 kts 147°
2026-05-03 20:21 49.01751 2.53060 357 ft 18 kts 85°
2026-05-03 20:21 49.01761 2.53260 360 ft 18 kts 84°
2026-05-03 20:21 49.01768 2.53366 357 ft 5 kts 85°
2026-05-03 20:22 49.01769 2.53387 357 ft 2 kts 85°
2026-05-03 20:22 49.01770 2.53407 357 ft 2 kts 85°
2026-05-03 20:22 49.01774 2.53479 365 ft 10 kts 85°
2026-05-03 20:22 49.01781 2.53591 357 ft 11 kts 85°
2026-05-03 20:23 49.01788 2.53703 361 ft 11 kts 85°
2026-05-03 20:23 49.01794 2.53814 362 ft 11 kts 85°
2026-05-03 20:23 49.01800 2.53922 357 ft 10 kts 85°
2026-05-03 20:23 49.01807 2.54044 357 ft 18 kts 85°
2026-05-03 20:24 49.01821 2.54316 360 ft 30 kts 83°
2026-05-03 20:24 49.01836 2.54627 358 ft 29 kts 86°
2026-05-03 20:24 49.01854 2.54935 358 ft 29 kts 85°
2026-05-03 20:24 49.01832 2.55123 361 ft 14 kts 156°
2026-05-03 20:25 49.01777 2.55136 365 ft 0 kts 175°
2026-05-03 20:27 49.01767 2.55137 363 ft 4 kts 175°
2026-05-03 20:27 49.01718 2.55143 363 ft 10 kts 175°
2026-05-03 20:27 49.01633 2.55153 361 ft 15 kts 175°
2026-05-03 20:27 49.01516 2.55167 360 ft 19 kts 175°
2026-05-03 20:28 49.01388 2.55203 365 ft 19 kts 165°
2026-05-03 20:28 49.01264 2.55194 362 ft 18 kts 202°
2026-05-03 20:28 49.01138 2.55173 364 ft 18 kts 168°
2026-05-03 20:28 49.01017 2.55224 363 ft 18 kts 163°
2026-05-03 20:29 49.00894 2.55276 358 ft 18 kts 164°
2026-05-03 20:29 49.00770 2.55330 362 ft 18 kts 163°
2026-05-03 20:29 49.00725 2.55443 364 ft 13 kts 75°
2026-05-03 20:29 49.00739 2.55577 365 ft 13 kts 84°
2026-05-03 20:30 49.00748 2.55729 358 ft 18 kts 84°
2026-05-03 20:30 49.00767 2.55942 364 ft 23 kts 81°
2026-05-03 20:30 49.00792 2.56193 361 ft 24 kts 81°
2026-05-03 20:30 49.00777 2.56433 361 ft 23 kts 139°
2026-05-03 20:31 49.00638 2.56437 361 ft 15 kts 202°
2026-05-03 20:31 49.00546 2.56415 359 ft 2 kts 206°
2026-05-03 20:31 49.00527 2.56390 364 ft 0 kts 220°